CW7693 Weather Reports


Display with metric or nautical units.
time (UTC)temp
F
wind
direction
speed
MPH
gust
MPH
rain 1hr
in
rain 24hr
in
rain mn
in
humidity
%
barometer
mb
20260905182306 63 2 2.0 3.0 0.00 0.02 0.02 82 1025.2
20260905181804 63 10 2.0 6.0 0.00 0.02 0.02 82 1025.1
20260905181303 63 11 3.0 6.0 0.00 0.02 0.02 82 1025.1
20260905180803 63 1 2.0 7.0 0.00 0.02 0.02 82 1025.2
20260905175804 64 81 4.0 7.0 0.00 0.02 0.02 81 1025.1
20260905174304 64 3 2.0 3.0 0.00 0.02 0.02 80 1025.1
20260905173804 64 0 2.0 3.0 0.00 0.02 0.02 79 1025.0
20260905173304 64 55 2.0 3.0 0.00 0.02 0.02 79 1025.0
20260905172305 65 180 2.0 3.0 0.00 0.02 0.02 78 1025.1
20260905171803 65 171 1.0 3.0 0.00 0.02 0.02 78 1025.0
20260905171303 65 178 2.0 3.0 0.00 0.02 0.02 78 1024.9
20260905170304 65 157 2.0 3.0 0.00 0.02 0.02 77 1025.0
20260905165804 65 292 0.0 3.0 0.00 0.02 0.02 76 1025.2
20260905165306 65 313 1.0 3.0 0.00 0.02 0.02 76 1025.3
20260905164804 65 342 1.0 5.0 0.00 0.02 0.02 75 1025.2
20260905163803 65 0 3.0 7.0 0.00 0.02 0.02 76 1025.0
20260905163303 65 3 3.0 7.0 0.00 0.02 0.02 75 1024.9
20260905161804 64 0 6.0 12.0 0.00 0.02 0.02 77 1024.8
20260905161304 64 0 5.0 12.0 0.00 0.02 0.02 78 1024.8
20260905160804 64 351 4.0 9.0 0.00 0.02 0.02 79 1024.7
20260905160304 65 14 3.0 12.0 0.00 0.02 0.02 79 1024.8
20260905155803 65 351 5.0 12.0 0.00 0.02 0.02 78 1024.8
20260905155306 65 357 5.0 12.0 0.00 0.02 0.02 78 1024.6
20260905154804 65 0 6.0 12.0 0.00 0.02 0.02 77 1024.6
20260905153804 66 0 5.0 10.0 0.00 0.02 0.02 78 1024.5
20260905152804 66 4 5.0 10.0 0.00 0.02 0.02 77 1024.5
20260905152306 67 0 5.0 12.0 0.00 0.02 0.02 76 1024.5
20260905151803 68 359 6.0 12.0 0.00 0.02 0.02 73 1024.3
20260905151304 69 330 5.0 12.0 0.00 0.02 0.02 72 1024.2
20260905150804 68 0 3.0 8.0 0.00 0.02 0.02 71 1024.2
20260905150303 68 357 4.0 7.0 0.00 0.02 0.02 72 1024.2
20260905145306 69 1 5.0 7.0 0.00 0.02 0.02 76 1024.4
20260905144803 70 0 3.0 7.0 0.00 0.02 0.02 74 1024.3
20260905144303 70 0 3.0 6.0 0.00 0.02 0.02 73 1024.0
20260905143804 71 0 3.0 6.0 0.00 0.02 0.02 71 1024.0
20260905143304 71 0 2.0 3.0 0.00 0.02 0.02 70 1024.0
20260905142804 71 0 0.0 5.0 0.00 0.02 0.02 70 1024.1
20260905142306 71 0 3.0 5.0 0.00 0.02 0.02 71 1024.1
20260905141804 70 0 1.0 3.0 0.00 0.02 0.02 74 1024.1
20260905135306 68 0 0.0 7.0 0.02 0.02 0.02 80 1024.1
20260905134303 68 0 3.0 6.0 0.02 0.02 0.02 82 1024.1
20260905133803 67 0 3.0 7.0 0.02 0.02 0.02 84 1024.0
20260905132305 65 0 3.0 6.0 0.02 0.02 0.02 89 1024.0
20260905131803 65 6 3.0 10.0 0.02 0.02 0.02 88 1024.1
20260905131303 65 0 4.0 14.0 0.02 0.02 0.02 87 1024.1
20260905130303 66 348 7.0 14.0 0.00 0.00 0.00 84 1024.1
20260905124803 68 0 7.0 14.0 0.00 0.00 0.00 78 1024.1
20260905124304 69 0 9.0 14.0 0.00 0.00 0.00 76 1023.9
20260905123804 69 0 6.0 12.0 0.00 0.00 0.00 74 1023.8
20260905123303 70 341 7.0 12.0 0.00 0.00 0.00 73 1023.7
20260905122804 70 346 7.0 12.0 0.00 0.00 0.00 71 1023.6
20260905121303 71 347 3.0 15.0 0.00 0.00 0.00 68 1023.6
20260905120804 72 271 5.0 15.0 0.00 0.00 0.00 59 1023.6
20260905120304 73 259 6.0 16.0 0.00 0.00 0.00 56 1023.6
20260905115803 73 279 3.0 16.0 0.00 0.00 0.00 55 1023.4
20260905113804 74 263 7.0 13.0 0.00 0.00 0.00 52 1023.3
20260905113304 74 181 5.0 16.0 0.00 0.00 0.00 53 1023.1
20260905112803 73 270 6.0 16.0 0.00 0.00 0.00 52 1023.1
20260905112306 74 252 10.0 16.0 0.00 0.00 0.00 52 1023.1
20260905111304 74 239 9.0 18.0 0.00 0.00 0.00 51 1023.1
20260905110804 74 261 6.0 15.0 0.00 0.00 0.00 53 1022.9
20260905110304 74 268 3.0 12.0 0.00 0.00 0.00 53 1023.1
20260905105804 74 233 6.0 21.0 0.00 0.00 0.00 52 1023.0
20260905105306 74 2 10.0 21.0 0.00 0.00 0.00 52 1023.0
20260905104804 75 234 5.0 10.0 0.00 0.00 0.00 52 1023.2
20260905104304 75 256 5.0 12.0 0.00 0.00 0.00 53 1023.1
20260905101804 72 0 8.0 17.0 0.00 0.00 0.00 56 1023.0
20260905101304 72 0 5.0 22.0 0.00 0.00 0.00 58 1023.0
20260905100804 72 332 12.0 22.0 0.00 0.00 0.00 56 1023.1
20260905100311 72 244 7.0 16.0 0.00 0.00 0.00 58 1023.0
20260905095803 72 265 6.0 12.0 0.00 0.00 0.00 60 1023.2
20260905095305 73 273 6.0 12.0 0.00 0.00 0.00 60 1023.1
20260905094303 73 352 3.0 7.0 0.00 0.00 0.00 61 1023.0
20260905093804 72 354 3.0 9.0 0.00 0.00 0.00 63 1023.0
20260905093303 72 352 2.0 10.0 0.00 0.00 0.00 64 1022.9
20260905092803 72 255 4.0 10.0 0.00 0.00 0.00 65 1022.9
20260905092306 71 0 3.0 9.0 0.00 0.00 0.00 66 1023.0
20260905091804 70 0 4.0 16.0 0.00 0.00 0.00 67 1023.1
20260905091303 70 217 6.0 16.0 0.00 0.00 0.00 66 1023.1
20260905090804 70 221 6.0 13.0 0.00 0.00 0.00 66 1023.2
20260905090303 70 192 4.0 13.0 0.00 0.00 0.00 66 1023.2
20260905085804 69 0 6.0 10.0 0.00 0.00 0.00 67 1023.2
20260905084303 69 0 3.0 8.0 0.00 0.00 0.00 77 1022.9
20260905083303 68 0 1.0 5.0 0.00 0.00 0.00 78 1023.0
20260905082804 68 0 2.0 6.0 0.00 0.00 0.00 78 1022.9
20260905081803 68 0 2.0 3.0 0.00 0.00 0.00 77 1022.7
20260905081303 68 0 1.0 3.0 0.00 0.00 0.00 77 1022.6
20260905075803 69 0 2.0 3.0 0.00 0.00 0.00 75 1022.2
20260905072803 67 0 1.0 3.0 0.00 0.00 0.00 78 1021.8
20260905072306 67 0 1.0 3.0 0.00 0.00 0.00 79 1021.8
20260905070803 67 0 2.0 5.0 0.00 0.00 0.00 80 1021.7
20260905070304 67 0 3.0 5.0 0.00 0.00 0.00 79 1021.7
20260905065306 67 0 1.0 3.0 0.00 0.00 0.00 79 1021.6
20260905064803 66 0 1.0 3.0 0.00 0.00 0.00 79 1021.6
20260905063804 67 0 2.0 3.0 0.00 0.00 0.00 79 1021.9
20260905062804 67 19 1.0 3.0 0.00 0.00 0.00 78 1021.8
20260905062306 67 5 2.0 5.0 0.00 0.00 0.00 77 1021.9
20260905061303 67 0 2.0 5.0 0.00 0.00 0.00 76 1021.9
20260905060803 67 0 2.0 5.0 0.00 0.00 0.00 75 1022.0
20260905060303 68 0 3.0 6.0 0.00 0.00 0.00 74 1022.0
20260905054803 68 0 3.0 6.0 0.00 0.00 0.00 70 1021.9
20260905054304 68 0 3.0 5.0 0.00 0.00 0.00 70 1021.8
20260905053303 68 0 1.0 3.0 0.00 0.00 0.00 69 1021.7
20260905051804 69 0 1.0 3.0 0.00 0.00 0.00 68 1021.4
20260905050304 70 0 1.0 6.0 0.00 0.00 0.00 64 1021.3
20260905045804 70 0 4.0 6.0 0.00 0.00 0.00 64 1021.0
20260905045305 70 0 3.0 6.0 0.00 0.00 0.00 64 1020.9
20260905044803 70 0 2.0 7.0 0.00 0.00 0.00 64 1020.9
20260905043804 70 0 2.0 7.0 0.00 0.00 0.00 64 1020.8
20260905043304 69 0 3.0 7.0 0.00 0.00 0.00 65 1020.7
20260905042804 69 0 2.0 3.0 0.00 0.00 0.00 65 1020.8
20260905042307 69 0 1.0 3.0 0.00 0.00 0.00 66 1020.5
20260905041804 69 0 1.0 7.0 0.00 0.00 0.00 66 1020.5
20260905041304 68 0 2.0 7.0 0.00 0.00 0.00 67 1020.5
20260905040804 67 357 2.0 7.0 0.00 0.00 0.00 69 1020.3
20260905035803 66 0 0.0 3.0 0.00 0.00 0.00 72 1020.3
20260905035306 66 3 2.0 3.0 0.00 0.00 0.00 72 1020.2
20260905034803 66 0 0.0 3.0 0.00 0.00 0.00 73 1020.2
20260905034304 66 359 1.0 3.0 0.00 0.00 0.00 73 1020.1
20260905033803 66 347 1.0 3.0 0.00 0.00 0.00 73 1020.0
20260905033304 66 0 2.0 3.0 0.00 0.00 0.00 73 1019.9
20260905032803 66 356 0.0 3.0 0.00 0.00 0.00 72 1019.9
20260905031804 66 0 1.0 3.0 0.00 0.00 0.00 71 1019.6
20260905031304 66 2 1.0 2.0 0.00 0.00 0.00 71 1019.4
20260905030804 66 3 1.0 3.0 0.00 0.00 0.00 72 1019.4
20260905025803 66 2 1.0 3.0 0.00 0.00 0.00 73 1019.3
20260905024304 66 0 1.0 3.0 0.00 0.00 0.00 73 1019.2
20260905023303 66 0 2.0 7.0 0.00 0.00 0.00 72 1019.2
20260905022306 67 0 2.0 8.0 0.00 0.00 0.00 70 1019.3
20260905021803 67 0 3.0 3.0 0.00 0.00 0.00 70 1019.1
20260905020803 67 1 2.0 3.0 0.00 0.00 0.00 70 1019.5
20260905020304 67 1 2.0 7.0 0.00 0.00 0.00 70 1019.6
20260905014803 67 1 1.0 3.0 0.00 0.00 0.00 69 1019.2
20260905014304 67 316 1.0 6.0 0.00 0.00 0.00 69 1019.2
20260905013803 67 332 3.0 6.0 0.00 0.00 0.00 70 1019.3
20260905013304 67 31 3.0 7.0 0.00 0.00 0.00 70 1019.3
20260905012804 66 0 5.0 7.0 0.00 0.00 0.00 70 1019.3
20260905012306 66 6 3.0 7.0 0.00 0.00 0.00 71 1019.3
20260905011803 66 318 3.0 5.0 0.00 0.00 0.00 71 1019.1
20260905005306 67 18 1.0 3.0 0.00 0.00 0.00 69 1019.2
20260905004803 67 0 1.0 3.0 0.00 0.00 0.00 69 1019.3
20260905004303 67 0 1.0 3.0 0.00 0.00 0.00 69 1019.2
20260905003303 67 23 4.0 7.0 0.00 0.00 0.00 69 1019.2
20260905002804 67 0 3.0 5.0 0.00 0.00 0.00 69 1019.2
20260905002306 67 0 1.0 3.0 0.00 0.00 0.00 69 1019.1
20260905001803 67 154 1.0 3.0 0.00 0.00 0.00 68 1019.3
20260905001304 67 355 2.0 3.0 0.00 0.00 0.00 68 1019.3
20260904235306 67 0 2.0 3.0 0.00 0.00 0.00 68 1019.5
20260904234304 67 0 2.0 3.0 0.00 0.00 0.00 68 1019.3
20260904233804 67 0 2.0 3.0 0.00 0.00 0.00 67 1019.4
20260904232803 68 0 2.0 5.0 0.00 0.00 0.00 65 1019.4
20260904232306 68 0 3.0 9.0 0.00 0.00 0.00 65 1019.3
20260904231803 68 0 4.0 9.0 0.00 0.00 0.00 65 1019.3
20260904231303 68 0 3.0 7.0 0.00 0.00 0.00 65 1019.3
20260904230804 69 0 4.0 7.0 0.00 0.00 0.00 64 1019.4
20260904225803 69 0 3.0 5.0 0.00 0.00 0.00 64 1019.4
20260904225305 69 0 2.0 5.0 0.00 0.00 0.00 63 1019.4
20260904224803 69 0 3.0 5.0 0.00 0.00 0.00 63 1019.3
20260904223803 70 0 3.0 7.0 0.00 0.00 0.00 63 1019.4
20260904223304 70 0 3.0 6.0 0.00 0.00 0.00 62 1019.4
20260904222804 70 0 2.0 6.0 0.00 0.00 0.00 62 1019.3
20260904221803 70 0 3.0 6.0 0.00 0.00 0.00 61 1019.3
20260904220803 70 0 3.0 6.0 0.00 0.00 0.00 61 1019.3
20260904220310 70 0 2.0 5.0 0.00 0.00 0.00 60 1019.3
20260904215803 70 0 2.0 8.0 0.00 0.00 0.00 60 1019.2
20260904215305 70 0 2.0 8.0 0.00 0.00 0.00 60 1019.2
20260904214304 71 0 3.0 6.0 0.00 0.00 0.00 60 1019.2
20260904213303 70 0 2.0 8.0 0.00 0.00 0.00 61 1019.1
20260904212804 70 0 5.0 8.0 0.00 0.00 0.00 61 1019.3
20260904212306 70 0 5.0 5.0 0.00 0.00 0.00 61 1019.1
20260904211804 70 0 2.0 5.0 0.00 0.00 0.00 61 1019.1
20260904211304 70 0 3.0 6.0 0.00 0.00 0.00 60 1019.0
20260904210804 70 0 3.0 6.0 0.00 0.00 0.00 60 1018.9
20260904210304 70 0 3.0 6.0 0.00 0.00 0.00 60 1019.0
20260904205805 70 0 2.0 5.0 0.00 0.00 0.00 60 1018.9
20260904205305 70 0 2.0 5.0 0.00 0.00 0.00 60 1019.0
20260904204803 70 0 1.0 5.0 0.00 0.00 0.00 60 1018.9
20260904204304 70 0 3.0 5.0 0.00 0.00 0.00 60 1019.0
20260904203804 70 0 1.0 3.0 0.00 0.00 0.00 60 1019.0
20260904202803 71 0 2.0 10.0 0.00 0.00 0.00 59 1018.9
20260904201804 71 0 5.0 10.0 0.00 0.00 0.00 58 1018.9
20260904201304 71 0 2.0 7.0 0.00 0.00 0.00 58 1018.9
20260904200804 71 0 3.0 8.0 0.00 0.00 0.00 58 1018.7
20260904194804 71 0 3.0 5.0 0.00 0.00 0.00 58 1018.7
20260904194303 72 148 4.0 7.0 0.00 0.00 0.00 57 1018.7
20260904193805 72 192 3.0 7.0 0.00 0.00 0.00 56 1018.7
20260904192804 73 0 2.0 5.0 0.00 0.00 0.00 54 1018.5
20260904191303 74 350 3.0 6.0 0.00 0.00 0.00 51 1018.3
20260904190804 75 4 1.0 6.0 0.00 0.00 0.00 50 1018.2
20260904190304 75 358 2.0 7.0 0.00 0.00 0.00 49 1018.1
20260904185306 76 0 5.0 7.0 0.00 0.00 0.00 45 1018.0
20260904184804 77 1 2.0 6.0 0.00 0.00 0.00 44 1018.0
20260904184304 78 356 2.0 6.0 0.00 0.00 0.00 43 1018.0
20260904183304 79 0 3.0 5.0 0.00 0.00 0.00 40 1017.6